TimeCST,TemperatureF,Dew PointF,Humidity,Sea Level PressureIn,VisibilityMPH,Wind Direction,Wind SpeedMPH,Gust SpeedMPH,PrecipitationIn,Events,Conditions,WindDirDegrees,DateUTC
12:55 AM,3.9,-0.0,84,30.29,10.0,West,5.8,-,N/A,,Clear,280,2013-01-14 06:55:00
1:55 AM,2.8,-1.1,84,30.31,10.0,West,5.8,-,N/A,,Clear,280,2013-01-14 07:55:00
2:55 AM,2.8,-1.1,84,30.34,10.0,West,5.8,-,N/A,,Clear,260,2013-01-14 08:55:00
3:55 AM,1.9,-1.5,86,30.36,10.0,West,4.6,-,N/A,,Clear,260,2013-01-14 09:55:00
4:55 AM,1.0,-2.2,86,30.35,10.0,Calm,Calm,-,N/A,,Clear,0,2013-01-14 10:55:00
5:55 AM,0.1,-3.8,83,30.39,10.0,SW,3.5,-,N/A,,Clear,220,2013-01-14 11:55:00
6:55 AM,3.2,-2.2,78,30.42,10.0,Calm,Calm,-,N/A,,Clear,0,2013-01-14 12:55:00
7:55 AM,3.2,-2.2,78,30.45,10.0,Calm,Calm,-,N/A,,Clear,0,2013-01-14 13:55:00
8:55 AM,8.6,3.2,79,30.45,10.0,SW,3.5,-,N/A,,Clear,220,2013-01-14 14:55:00
11:55 AM,21.2,6.8,54,30.43,10.0,West,15.0,-,N/A,,Mostly Cloudy,280,2013-01-14 17:55:00
12:55 PM,21.2,8.6,58,30.42,10.0,West,12.7,-,N/A,,Overcast,270,2013-01-14 18:55:00
1:55 PM,21.2,8.6,58,30.41,10.0,West,17.3,-,N/A,,Mostly Cloudy,260,2013-01-14 19:55:00
2:55 PM,21.2,8.6,58,30.41,10.0,WNW,12.7,-,N/A,,Scattered Clouds,300,2013-01-14 20:55:00
3:55 PM,19.4,8.6,63,30.42,10.0,West,10.4,-,N/A,,Scattered Clouds,280,2013-01-14 21:55:00
4:55 PM,15.8,8.6,73,30.42,10.0,West,5.8,-,N/A,,Scattered Clouds,280,2013-01-14 22:55:00
5:55 PM,12.2,6.8,79,30.43,10.0,Calm,Calm,-,N/A,,Scattered Clouds,0,2013-01-14 23:55:00
6:55 PM,14.0,8.6,79,30.43,10.0,Calm,Calm,-,N/A,,Mostly Cloudy,0,2013-01-15 00:55:00
7:09 PM,14.0,8.6,79,30.36,10.0,Calm,Calm,-,N/A,Snow,Light Snow,0,2013-01-15 01:09:00
7:55 PM,10.4,8.6,92,30.42,10.0,Calm,Calm,-,N/A,,Scattered Clouds,0,2013-01-15 01:55:00
8:55 PM,8.6,5.0,85,30.42,10.0,Calm,Calm,-,N/A,,Clear,0,2013-01-15 02:55:00
9:55 PM,5.0,1.4,85,30.42,10.0,Calm,Calm,-,N/A,,Clear,0,2013-01-15 03:55:00
10:55 PM,5.0,1.4,85,30.42,10.0,Calm,Calm,-,N/A,,Clear,0,2013-01-15 04:55:00
11:55 PM,3.2,-0.4,85,30.42,10.0,Calm,Calm,-,N/A,,Clear,0,2013-01-15 05:55:00